GW0409 Weather Reports


Display with metric or nautical units.
time (UTC)temp
F
wind
direction
speed
MPH
gust
MPH
rain 1hr
in
rain 24hr
in
rain mn
in
humidity
%
barometer
mb
20260504220020 68 68 4.0 10.0 0.00 0.00 0.00 34 1013.9
20260504215016 68 99 2.0 7.0 0.00 0.00 0.00 33 1014.0
20260504214017 68 257 2.0 7.0 0.00 0.00 0.00 33 1014.1
20260504213020 68 56 4.0 8.0 0.00 0.00 0.00 34 1014.2
20260504212020 68 79 2.0 7.0 0.00 0.00 0.00 34 1014.2
20260504211017 67 27 3.0 13.0 0.00 0.00 0.00 35 1014.3
20260504210018 67 59 3.0 8.0 0.00 0.00 0.00 34 1014.4
20260504205038 67 34 3.0 6.0 0.00 0.00 0.00 35 1014.4
20260504204019 66 74 2.0 5.0 0.00 0.00 0.00 37 1014.5
20260504203021 66 17 3.0 8.0 0.00 0.00 0.00 36 1014.7
20260504202058 66 13 4.0 12.0 0.00 0.00 0.00 37 1014.6
20260504201018 66 54 3.0 7.0 0.00 0.00 0.00 37 1014.8
20260504200040 65 22 3.0 7.0 0.00 0.00 0.00 38 1014.8
20260504195019 65 4 4.0 11.0 0.00 0.00 0.00 38 1014.9
20260504194016 64 42 3.0 9.0 0.00 0.00 0.00 40 1014.9
20260504193019 64 23 3.0 7.0 0.00 0.00 0.00 39 1015.0
20260504192039 64 14 3.0 9.0 0.00 0.00 0.00 40 1015.1
20260504191017 64 22 2.0 7.0 0.00 0.00 0.00 39 1015.1
20260504190019 64 36 2.0 4.0 0.00 0.00 0.00 41 1015.2
20260504185017 62 2 3.0 8.0 0.00 0.00 0.00 42 1015.3
20260504184037 62 20 3.0 5.0 0.00 0.00 0.00 42 1015.3
20260504183020 62 304 1.0 5.0 0.00 0.00 0.00 42 1015.4
20260504182017 61 49 3.0 7.0 0.00 0.00 0.00 44 1015.5
20260504181017 61 14 3.0 8.0 0.00 0.00 0.00 45 1015.5
20260504180041 60 358 2.0 6.0 0.00 0.00 0.00 45 1015.5
20260504175019 60 12 3.0 8.0 0.00 0.00 0.00 45 1015.6
20260504174022 59 4 4.0 11.0 0.00 0.00 0.00 46 1015.7
20260504173018 59 11 4.0 8.0 0.00 0.00 0.00 47 1015.7
20260504172018 58 5 3.0 8.0 0.00 0.00 0.00 48 1015.7
20260504171020 57 352 2.0 4.0 0.00 0.00 0.00 49 1015.7
20260504151038 51 351 3.0 5.0 0.00 0.00 0.00 56 1016.1
20260504141020 48 328 1.0 3.0 0.00 0.00 0.00 64 1015.8
20260504081020 57 12 5.0 10.0 0.00 0.00 0.00 48 1014.1
20260504050018 62 31 2.0 4.0 0.00 0.00 0.00 42 1014.1
20260504045018 62 54 1.0 4.0 0.00 0.00 0.00 41 1014.1
20260504044019 62 11 1.0 4.0 0.00 0.00 0.00 42 1014.1
20260504043019 62 31 1.0 3.0 0.00 0.00 0.00 41 1013.9
20260504042018 62 32 1.0 4.0 0.00 0.00 0.00 42 1013.9
20260504041017 62 356 0.0 2.0 0.00 0.00 0.00 43 1013.8
20260504040020 63 57 0.0 3.0 0.00 0.00 0.00 42 1013.7
20260504035020 63 48 0.0 2.0 0.00 0.00 0.00 41 1013.6
20260504034041 64 54 0.0 2.0 0.00 0.00 0.00 40 1013.5
20260504033019 65 61 0.0 2.0 0.00 0.00 0.00 40 1013.4
20260504032020 66 109 1.0 4.0 0.00 0.00 0.00 39 1013.4
20260504031018 67 82 1.0 3.0 0.00 0.00 0.00 37 1013.3
20260504030018 67 5 1.0 3.0 0.00 0.00 0.00 36 1013.3
20260504025019 68 43 3.0 7.0 0.00 0.00 0.00 35 1013.3
20260504024019 70 57 3.0 5.0 0.00 0.00 0.00 33 1013.3
20260504023039 70 33 1.0 4.0 0.00 0.00 0.00 33 1013.3
20260504022039 71 39 2.0 6.0 0.00 0.00 0.00 33 1013.3
20260504021019 71 18 2.0 5.0 0.00 0.00 0.00 32 1013.3
20260504020018 71 67 2.0 8.0 0.00 0.00 0.00 32 1013.5
20260504015019 71 74 3.0 6.0 0.00 0.00 0.00 32 1013.5
20260504014019 71 59 4.0 8.0 0.00 0.00 0.00 32 1013.6
20260504013021 71 67 3.0 8.0 0.00 0.00 0.00 32 1013.6
20260504012019 71 334 3.0 10.0 0.00 0.00 0.00 32 1013.7
20260504011020 71 29 3.0 6.0 0.00 0.00 0.00 32 1013.8
20260504010020 71 58 3.0 8.0 0.00 0.00 0.00 32 1013.9
20260504005017 71 57 4.0 9.0 0.00 0.00 0.00 32 1013.9
20260504004017 72 39 2.0 8.0 0.00 0.00 0.00 32 1014.0
20260504003017 72 33 3.0 9.0 0.00 0.00 0.00 32 1014.0
20260504002038 72 64 3.0 8.0 0.00 0.00 0.00 33 1014.1
20260504001018 72 298 3.0 11.0 0.00 0.00 0.00 33 1014.1
20260504000018 72 333 3.0 10.0 0.00 0.00 0.00 33 1014.1
20260503235018 71 249 3.0 7.0 0.00 0.00 0.00 33 1014.2
20260503234019 71 0.0 0.0 0.00 0.00 0.00 34 1014.4
20260503233018 71 325 2.0 6.0 0.00 0.00 0.00 33 1014.5
20260503232040 71 79 2.0 5.0 0.00 0.00 0.00 32 1014.6
20260503231019 70 236 2.0 6.0 0.00 0.00 0.00 31 1014.7
20260503230019 70 318 4.0 9.0 0.00 0.00 0.00 30 1014.9
20260503225043 70 0.0 0.0 0.00 0.00 0.00 31 1015.0
20260503224019 69 300 3.0 8.0 0.00 0.00 0.00 33 1015.1
20260503223016 69 254 3.0 8.0 0.00 0.00 0.00 34 1015.2
20260503222017 70 304 4.0 10.0 0.00 0.00 0.00 34 1015.2
20260503221020 70 311 3.0 9.0 0.00 0.00 0.00 34 1015.3